{"data":{"norad_id":68395,"epoch":"2026-09-19T09:06:18.108864Z","epoch_age_seconds":144863,"freshness":"FRESH","line1":"1 68395U 26063R   26262.37937626  .00020938  00000+0  64893-3 0  9993","line2":"2 68395  97.2852  43.2102 0000797 328.8725  31.2470 15.33453131 27573","mean_motion":15.33453131,"eccentricity":7.97e-5,"inclination_deg":97.2852,"raan_deg":43.2102,"arg_perigee_deg":328.8725,"mean_anomaly_deg":31.247,"bstar":0.00064893,"rev_number":2757,"period_min":93.905706727466,"perigee_km":464.97354306787,"apogee_km":466.06442183147,"semimajor_km":6843.6559824497,"source":"CELESTRAK","updated_at":"2026-09-20T09:00:43.896998Z"}}